COSMOS 2251 DEB, 35667

Orbit data source: Space-Track

COSMOS 2251 DEB, 35667 is space debris in LEO originally from a launch on Wed, 16 Jun 1993 UTC launched from the Plesetsk Missile And Space Complex (PKMTR). The debris from Iridium 33, an American commercial communications satellite, has been tracked extensively since its accidental collision with the defunct Russian satellite Cosmos 2251 in 2009. This event, occurring at high speed in low Earth orbit (LEO), generated thousands of pieces of space debris, significantly increasing the risk of further collisions. The Iridium 33 debris cloud has impacted space traffic management and orbital debris mitigation strategies, making it a subject of ongoing study in space situational awareness.

Loading next visibility...
Identifier
35667, 1993-036APJ
Orbit
LEO
Country
Flag of CISCIS
Related business
Manufacturer
Unknown
Mission
Spacecraft
Bus & Motor
Unknown
Mass
Unknown
Launch date (UTC)
1993-06-16 (33 years ago)
Launch vehicle
Unknown
Launch site
Plesetsk Missile And Space Complex (PKMTR)
Object type
Payload
Rocket body
Debris
Shape & HBR
Unknown shape, 0.1 m
Radar Cross Section
Small (<0.1 m²)

Expand to show TLE details & history
Last TLE update: 3 days ago

TLE from 3 days ago
0 COSMOS 2251 DEB
1 35667U 93036APJ 26148.36440968  .00003882  00000-0  78500-3 0  9993
2 35667  74.0538 182.0683 0019502 204.7701 155.2532 14.61570570732362
Epoch: 2026-05-28T08:44Z
TLE epoch observation values (Epoch: 2026-05-28T08:44:44.996Z)
Latitude
0.00005°
Longitude
164.97063°
Altitude
703.272 km
Speed
7.498 km/s
True Right ascension
12h 08m 16s
True Declination
0° 00' 00"
Sunlit
Object was in daylight at epoch
Visualization orbit readout
Latitude
Unknown
Longitude
Unknown
Altitude
Unknown
Speed
Unknown
Apparent Right ascension
Unknown
Apparent Declination
Unknown
Sunlit
N/A
Visualization observer readout
Local Sidereal Time
11:30:35
Azimuth
Unknown
Elevation
Unknown
Doppler factor
Unknown
Orbital elements
Apogee altitude
699.477 km
Perigee altitude
671.926 km
Semi-major axis
7,063.839 km
Eccentricity
0.00195
Inclination
74.0538°
RAAN
182.0683°
Arg. of periapsis
204.7701°
True anomaly
155.34654°
Mean anomaly
155.2532°
Eccentric anomaly
155.29989°
Mean motion
3.6558 °/min
Orbital period
98.47 mins
BSTAR
0.000785
Loading maneuver chart data...
Computing Atmospheric mass density...

Documentation

Showing up to 5 results
|